FENGYUN 1C DEB

Satellite information

Favourite Embed

Satellite Type and Status

DEBRISIN ORBIT

Key statistics

Satellite FENGYUN 1C DEB at a glance.

Uptime

9665

Days in orbit

Revolutions

≈ 14.5

Per day

Orbit

SSO

Sun Synchronous Orbit

Inclination

98.9

Latest

Satellite identification and parameters

Extended collection of information and parameters for FENGYUN 1C DEB.

Object identification

Identified? True

Debris? True

Object name: FENGYUN 1C DEB

International designator: 1999-025KF

Object number (NORAD): 29957

Object ID (CCSDS): 29957

Country: PEOPLES REPUBLIC OF CHINA (PRC)

Current information (Y/N): Y

RCS size: SMALL

Orbital parameters

Period: 99.405 minutes

Inclination: 98.9232 deg

SMA: 7108.319 km

Apoapsis: 756.413 km

Periapsis: 703.955 km

RAAN: 60.3461 deg

Eccentricy: 0.0036899

Argument of periapsis: 323.4522 deg

Mean anomaly: 65.9373 deg

Mean motion: 14.48613038 rev/day

Mean motion (dot): 0.00020307 rev/day2

B* drag term: 0.00535 1/REarth

Two-line elements (TLE)

Creation date: Oct. 23, 2025, 10:26 p.m.

Reference frame: TEME

Reference center: EARTH

Epoch: Oct. 23, 2025, 7:22 a.m. UTC

TLE line 0: 0 FENGYUN 1C DEB

TLE line 1: 1 29957U 99025KF 25296.30763696 .00020307 00000-0 53500-2 0 9998

TLE line 2: 2 29957 98.9232 60.3461 0036899 323.4522 65.9373 14.48613038967613

Live tracking on map

Real-time ground track for satellite FENGYUN 1C DEB.

In-orbit conjunctions

A list of the most updated potential collisions computed for object FENGYUN 1C DEB.

Target Orbit TCA Probability of collision Miss distance Type
COSMOS 858 LEO 2025-02-19 18:50:54 0.0002120133 373.0 (m) PAYLOAD
IRIDIUM 914 LEO 2024-12-15 05:42:10 0.0001379058 321.0 (m) PAYLOAD
DMSP 5D-2 F13 DEB SSO 2024-07-07 12:01:29 0.0001405687 262.0 (m) DEBRIS

Associated space launch

Chinese polar orbiting meteorological satellite

FENGYUN 1C DEB was lifted into orbit during the mission ‘Long March 4B | Feng Yun 1C’, on board a Long March 4B space rocket.

The launch took place on May 10, 1999, 1:33 a.m. from Launch Complex 7.

For more information about the launch, click the button.

Launch to space Long March 4B | Feng Yun 1C
Long March 4B | Feng Yun 1C

Agency: N/A

Status: Launch Successful

Launch date: May 10, 1999, 1:33 a.m. UTC

Rocket: Long March 4B

Launch pad: Launch Complex 7

Location: Taiyuan Satellite Launch Center, People's Republic of China

...

Latest news about this satellite

There are no fresh news available about this satellite. Check back as we update our databases every day.


Newsletter sign-up

Weekly statistics, charts and insights to help you stay on top of the space industry.